This demonstration page uses our WeatherBlox Daily Observations layout. Learn more.

Left ArrowRight Arrow

34.16533, -84.80231

Hourly Observations for August 9, 2018

Temp ( °F °C ) Dew Point ( °F °C ) Humidity (%) Winds ( mph kmh ) Pressure ( in mb ) Visibility ( mi km ) Precip ( " mm )
12:53 am 00:53 Clear 71 21.7 71 21.7 100 100 Calm 30.04 1017 10 16 0.00 0.00
1:53 am 01:53 Clear 70 21.1 70 21.1 100 100 Calm 30.04 1017 9 14 0.00 0.00
2:53 am 02:53 Mostly Cloudy 71 21.7 71 21.7 100 100 Calm 30.03 1017 10 16 0.00 0.00
3:53 am 03:53 Partly Cloudy 70 21.1 70 21.1 100 100 Calm 30.01 1016 9 14 0.00 0.00
4:53 am 04:53 Clear 68 20 68 20 100 100 Calm 30.01 1016 9 14 0.00 0.00
5:53 am 05:53 Clear 68 20 68 20 100 100 Calm 30.01 1016 10 16 0.00 0.00
6:53 am 06:53 Mostly Clear 68 20 68 20 100 100 Calm 30.02 1017 10 16 0.00 0.00
7:53 am 07:53 Sunny 70 21.1 70 21.1 100 100 Calm 30.04 1017 10 16 0.00 0.00
8:53 am 08:53 Sunny 74 23.3 71 21.7 91 91 Calm 30.06 1018 10 16 0.00 0.00
9:53 am 09:53 Sunny 77 25 73 22.8 88 88 Calm 30.05 1018 10 16 0.00 0.00
10:53 am 10:53 Sunny 81 27.2 74 23.3 79 79 VRB 3 6 30.06 1018 10 16 0.00 0.00
11:53 am 11:53 Mostly Sunny 84 28.9 74 23.3 72 72 N 8 13 30.06 1018 10 16 0.00 0.00
12:46 pm 12:46 Cloudy 84 28.9 75 23.9 74 74 SSE 3 6 30.03 1017 10 16 0.00 0.00
12:53 pm 12:53 Cloudy 84 28.9 75 23.9 74 74 Calm 30.05 1018 10 16 0.00 0.00
1:10 pm 13:10 Partly Cloudy 85 29.4 74 23.3 70 70 VRB 3 6 30.03 1017 10 16 0.00 0.00
1:53 pm 13:53 Mostly Sunny 87 30.6 74 23.3 65 65 Calm 30.01 1016 10 16 0.00 0.00
2:53 pm 14:53 Mostly Sunny 88 31.1 73 22.8 61 61 Calm 29.98 1015 10 16 0.00 0.00
3:53 pm 15:53 Mostly Cloudy 82 27.8 70 21.1 67 67 VRB 5 7 30.00 1016 10 16 0.00 0.00
4:06 pm 16:06 Partly Cloudy with Nearby Thunderstorms 80 26.7 70 21.1 71 71 undefined N/A 30.00 1016 10 16 0.00 0.00
4:21 pm 16:21 Partly Cloudy 78 25.6 70 21.1 76 76 VRB 5 7 30.00 1016 10 16 0.00 0.00
4:33 pm 16:33 Mostly Cloudy with Nearby Thunderstorms 77 25 70 21.1 79 79 VRB 5 7 30.00 1016 9 14 0.00 0.03
4:53 pm 16:53 Cloudy with Light Rain 74 23.3 72 22.2 94 94 Calm 30.03 1017 9 14 0.02 0.51
5:53 pm 17:53 Partly Cloudy 76 24.4 72 22.2 88 88 Calm 30.02 1017 10 16 0.00 0.03
6:53 pm 18:53 Sunny 75 23.9 71 21.7 88 88 Calm 30.01 1016 10 16 0.00 0.00
7:53 pm 19:53 Sunny 75 23.9 72 22.2 90 90 Calm 30.01 1016 10 16 0.00 0.00
8:53 pm 20:53 Clear 73 22.8 73 22.8 100 100 Calm 30.02 1017 10 16 0.00 0.00
9:53 pm 21:53 Clear 72 22.2 72 22.2 100 100 Calm 30.02 1017 10 16 0.00 0.00
10:53 pm 22:53 Clear 72 22.2 72 22.2 100 100 Calm 30.02 1017 10 16 0.00 0.00
11:49 pm 23:49 Partly Cloudy 72 22 72 22 100 100 Calm 30.03 1017 9 14 0.00 0.00
11:53 pm 23:53 Mostly Cloudy 71 21.7 71 21.7 100 100 Calm 30.02 1017 9 14 0.00 0.00

Powered by AerisWeather